sat.trackr.live / text

‹ back to catalog

ONEWEB-0058

NORAD 45161 · 2020-008AG

PAYLOAD ACTIVE UNKNOWN

§ Identity

Operator
Country
UK
Launch date
2020-02-06
Launch site
TYMSC
Launch vehicle
Mass (kg)
RCS (m²)

Purposes: comms

External: N2YO · Heavens-Above · Gunter

§ Orbital elements

Epoch: 2026-09-20T02:56:39.259104Z

Period
109.89 min
Inclination
87.8896°
Eccentricity
0.0001698
Mean motion
13.10373540 rev/d
Perigee alt
1,220.4 km
Apogee alt
1,223.0 km
Semi-major
7,599.9 km
B*
-1.8588e-3
RAAN
17.3754°
Arg perigee
92.8934°
Mean anomaly
267.2388°
Rev number
32,085

§ Raw data

ONEWEB-00581 45161U 20008AG  26263.12267661 -.00000636  00000+0 -18588-2 0  99952 45161  87.8896  17.3754 0001698  92.8934 267.2388 13.10373540320852

JSON: /api/v1/satellites/45161 · /tle

For live sub-satellite position, see the globe view (requires WebGL).

§ Visibility from observer

Set your observer location to see the next 7 days of passes ≥ 10°. The values pass through the URL so the page stays shareable.

No JS? Fill the form by hand. The geolocation button needs JavaScript.